Torna al catalogo

STARLINK-31258

AttivoComunicazioniVLEO
NORAD 58829·PAYLOAD·🇺🇸 United States

Lanciato Jan 24, 2024 da Vandenberg Space Force Base

Loading…

Prossimi Passaggi (prossime 24 ore)

TLE

AggiornatoSource: CelesTrak SupGP

Epoca: Sep 14, 2026, 20:42 UTC

1 58829C 24017D   26257.86298611  .00025453  00000+0  75228-3 0  2571
2 58829  53.1591  43.7639 0001199  84.0005 354.2704 15.34366282    13

Traccia STARLINK-31258 in tempo reale con AllMySat

Download on the App Store